Weather Roundup
Issued by NWS Chicago, IL

Current Version | Previous Version | Text Only | Print | Product List | Glossary On
Versions: 1 2 3 4 5 6 7 8 9 10 11 12 13 14 15 16 17 18 19 20 21 22 23 24 25 26 27 28 29 30 31 32 33 34 35 36 37 38 39 40 41 42 43 44 45 46 47 48 49 50
616
NZUS59 KLOT 112108
HRRLOT

CHICAGO AREA WEATHER ROUNDUP
NATIONAL WEATHER SERVICE CHICAGO/ROMEOVILLE IL
300 PM CST THU FEB 11 2016

NOTE: "FAIR" INDICATES FEW OR NO CLOUDS BELOW 12,000 FEET WITH NO
SIGNIFICANT WEATHER AND/OR OBSTRUCTIONS TO VISIBILITY.

* THESE STATIONS ARE NOT UNDER NWS QUALITY CONTROL. THEY ALSO MAY NOT
  REPORT WEATHER SUCH AS PRECIPITATION OR FOG.

ILZ005-006-012>014-019>023-112200-
NORTHEAST ILLINOIS

CITY           SKY/WX    TMP DP  RH WIND       PRES   REMARKS
OHARE          MOSUNNY   21   2  43 W7        30.27F WCI  12
MIDWAY         MOSUNNY   23  -1  35 VRB3      30.29S
AURORA         SUNNY     22   7  52 W6        30.29F WCI  14
LANSING*       SUNNY     22   0  37 NW3       30.29S
JOLIET*        SUNNY     23   4  43 NW6       30.30F WCI  16
WAUKEGAN       SUNNY     20   1  43 W6        30.26F WCI  12
DUPAGE AIRPORT SUNNY     20   2  45 NW6       30.27F WCI  12
WHEELING       SUNNY     20   0  41 W9        30.29F WCI   9
KANKAKEE*      SUNNY     23   6  48 SW9       30.31S WCI  13
MORRIS*        SUNNY     22   5  48 W3        30.28S
LEWIS AIRPORT* SUNNY     22   2  41 NW8       30.29S WCI  12
$$

WIZ051-052-058>065-066-070>072-112200-
SOUTHEAST WISCONSIN

CITY           SKY/WX    TMP DP  RH WIND       PRES   REMARKS
MILWAUKEE      MOSUNNY   19  -1  41 W8        30.26F WCI   9
KENOSHA*       SUNNY     19   3  49 W7        30.26F WCI  10
RACINE*        SUNNY     19  -1  41 SW7       30.28F WCI  10
BURLINGTON     SUNNY     18   0  46 SW8       30.26F WCI   7
WAUKESHA       SUNNY     16   0  48 W7        30.26F WCI   6
WEST BEND      SUNNY     18   1  49 CALM      30.23F
$$

INZ001>003-010>013-019-020-112200-
NORTHWEST INDIANA

CITY           SKY/WX    TMP DP  RH WIND       PRES   REMARKS
GARY*          MOSUNNY   23   3  42 N6        30.30S WCI  16
MICHIGAN CITY* NOT AVBL
RENSSELAER*    NOT AVBL
VALPARAISO     MOSUNNY   21   8  57 VRB5      30.28S WCI  15
$$

LMZ740>746-112200-
SOUTHERN LAKE MICHIGAN

STATION/POSITION TIME  SKY/WX   TEMP WIND        PRES    VSBY
                                AIR  DIR/SP/G
                 (UTC)          (F)  (DEG/KT/KT) (MB)    (MI)
HARRISON CRIB    2000            18  360/  4/  7   N/A
BURNHAM HARBOR   2100            20   50/  3/  5   N/A
CALUMET HARBOR   2000            18   20/  8/ 11 1025.1F
BURNS HARBOR     2000            18  310/  8/ 18 1026.4F
MICHIGAN CITY    2000            19  270/ 12/ 13   N/A
$$

ABBREVIATIONS USED IN REMARKS
   TC - TEMPERATURE IN CELSIUS
  WCI - WIND CHILL INDEX
   HX - HEAT INDEX
  VSB - VISIBILITY
$$




USA.gov is the U.S. government's official web portal to all federal, state and local government web resources and services.